Вернуться в каталог

DELTA 1 DEB

АктивенSSO
NORAD 10658·DEBRIS·🇺🇸 United States

Запущен Jul 29, 1976 с Vandenberg Space Force Base

Loading…

Ближайшие Пролёты (ближайшие 24 часа)

TLE

СвежийSource: Space-Track

Эпоха: Sep 14, 2026, 05:52 UTC

1 10658U 76077U   26257.24492029 -.00000048  00000-0 -14266-4 0  9998
2 10658 102.4985 245.0926 0056486 211.5568 220.1873 12.29960428250874

Отслеживайте DELTA 1 DEB в реальном времени с AllMySat

Download on the App Store